[[{"header":{"parameterUnit":"m.s-1","parameterCategory":1,"la1":30.2991,"la2":30.254,"lo1":-89.0895,"lo2":-89.0444,"dy":0.0017,"dx":0.0017,"nx":28,"ny":28,"refTime":"2026-01-03T03:00:00:Z","depth":0,"parameterNumber":2,"parameterNumberName":"U-component_of_WINDS"},"data":[0,0,0,0,0,0,0,0,0,0,0,0,0,0,0,0,0,0,0,0,0,0,0,0,0,0,0,0,0,0,0,0,0,0,0,0,0,0,0,0,0,0,0,0,0,0,0,0,0,0,0,0,0,0,0,0,0,0,0.7636,0.7636,0,0.7623,0.7623,0.7623,0.7579,0.7578,0.7577,0.7576,0.7565,0.7566,0.7567,0,0,0,0,0,0,0,0,0,0,0,0,0,0.7625,0.7626,0.7636,0.7636,0.7636,0.7623,0.7623,0.7623,0.7579,0.7578,0.7577,0.7575,0.7565,0.7566,0.7567,0,0,0,0,0,0,0,0,0,0,0,0,0,0.7623,0.7626,0.7636,0.7612,0.761,0.7623,0.7623,0.7623,0.7579,0.7578,0.7576,0.7575,0.7565,0.7566,0.7567,0.7603,0,0,0.757,0.757,0,0,0,0,0,0,0,0,0.7623,0.7624,0.7616,0.7614,0.7611,0.7601,0.7616,0.7617,0.758,0.7591,0.7576,0.7574,0.7579,0.7578,0.7579,0.7603,0.7602,0.757,0.7571,0.7571,0.7571,0,0,0,0,0,0,0,0.7623,0.7624,0.7631,0.7616,0.7613,0.7603,0.7601,0.7616,0.7594,0.759,0.7587,0.7586,0.7577,0.7579,0.7579,0.7602,0.757,0.7571,0.7571,0.7572,0.7657,0.7659,0,0,0,0,0,0,0.7627,0.7624,0.7631,0.7631,0.7614,0.7605,0.7602,0.7606,0.7593,0.759,0.7587,0.7584,0.7578,0.7578,0.7578,0.7622,0.7571,0.7572,0.7573,0.7656,0.7658,0.7659,0,0,0,0,0,0,0.7626,0.7628,0.7632,0.7627,0.7626,0.7606,0.7611,0.7607,0.7608,0.7591,0.7587,0.7592,0.7577,0.7577,0.7598,0.7621,0.7572,0.7573,0.7654,0.7656,0.7658,0.7709,0,0,0,0,0,0,0.7626,0.7628,0.7641,0.7627,0.7627,0.7651,0.7612,0.7607,0.7609,0.7605,0.7595,0.7592,0.7575,0.7597,0.7599,0.7622,0.7574,0.7651,0.7655,0.7658,0.7705,0.7713,0.7719,0,0,0,0,0,0.7626,0.7655,0.7641,0.7643,0.7642,0.7652,0.7652,0.7632,0.7611,0.7625,0.7614,0.7592,0.7618,0.7599,0.7601,0.7625,0.765,0.7654,0.7657,0.7702,0.7711,0.7719,0,0,0,0,0,0,0.7673,0.7653,0.7638,0.7663,0.766,0.7645,0.7661,0.7642,0.7645,0.7641,0.7616,0.7614,0.7639,0.7633,0.7613,0.766,0.763,0.7635,0.7663,0.7672,0.7679,0.7681,0.7575,0,0,0,0,0,0.7686,0.7694,0.7677,0.7701,0.77,0.7681,0.7685,0.7669,0.7665,0.7664,0.7654,0.7652,0.766,0.7665,0.7671,0.7703,0.7702,0.7721,0.7728,0.7734,0.7738,0.7758,0.7766,0.7672,0.7672,0.7672,0,0,0.7713,0.7703,0.771,0.771,0.7706,0.7717,0.768,0.7693,0.7701,0.7666,0.7685,0.7678,0.7674,0.7702,0.7713,0.7698,0.7764,0.7738,0.7743,0.7745,0.7762,0.7771,0.7779,0.7674,0.7674,0.7673,0,0,0.7769,0.7761,0.7782,0.7778,0.7772,0.7759,0.7764,0.7752,0.7746,0.7765,0.7739,0.775,0.7762,0.7761,0.7762,0.7819,0.78,0.7822,0.786,0.7879,0.7886,0.7893,0.7915,0.7923,0.7826,0.7826,0.7826,0,0.7804,0.7819,0.7795,0.781,0.7812,0.7779,0.7801,0.7799,0.7795,0.7797,0.778,0.7797,0.7791,0.7819,0.7833,0.7834,0.7841,0.7824,0.7887,0.7893,0.7899,0.792,0.7929,0.7829,0.7829,0.7828,0.7828,0,0.7863,0.7874,0.7891,0.7888,0.7892,0.791,0.789,0.7897,0.7882,0.7871,0.7892,0.7885,0.789,0.7895,0.7879,0.7921,0.7912,0.7891,0.7861,0.7911,0.7931,0.7939,0.7833,0.7832,0.7831,0.7831,0,0,0.7948,0.7933,0.794,0.7939,0.793,0.7938,0.7956,0.796,0.7967,0.7966,0.7981,0.7994,0.7975,0.7976,0.7961,0.7977,0.8026,0.7954,0.7954,0.797,0.8074,0.8091,0.8101,0.8012,0.8013,0.8014,0.8075,0,0.8003,0.8031,0.8011,0.8044,0.8055,0.8024,0.804,0.8037,0.8028,0.8037,0.8027,0.8037,0.801,0.8011,0.8026,0.8017,0.8046,0.8012,0.8028,0.8029,0.8032,0.8111,0.8129,0.8186,0.8082,0.8083,0.8084,0,0.8071,0.8073,0.8106,0.8097,0.8101,0.8115,0.8118,0.8126,0.8123,0.8115,0.8118,0.8099,0.8117,0.8086,0.8112,0.8089,0.8094,0.8091,0.8093,0.8095,0.8061,0.8117,0.8203,0.8213,0.8096,0.8095,0.8094,0,0.8133,0.8143,0.8165,0.8165,0.8154,0.8165,0.8161,0.8156,0.8161,0.8164,0.8167,0.8172,0.8176,0.8181,0.8165,0.8143,0.8194,0.8161,0.819,0.8191,0.8203,0.8203,0.8294,0.8204,0.8204,0.8203,0.8203,0,0.8197,0.8219,0.8193,0.8207,0.8232,0.8208,0.8234,0.8227,0.8223,0.8236,0.821,0.8223,0.82,0.8211,0.8198,0.8223,0.8224,0.822,0.8217,0.8224,0.8225,0.8229,0.8225,0.8206,0.8205,0.8205,0.8204,0,0.8271,0.8254,0.8276,0.8264,0.8261,0.828,0.827,0.8284,0.8273,0.829,0.8293,0.8276,0.8288,0.8272,0.8282,0.8274,0.8309,0.8298,0.831,0.8308,0.8339,0.8337,0.8436,0.8449,0.8349,0.835,0.8351,0,0.8314,0.833,0.832,0.8327,0.8324,0.8335,0.834,0.8318,0.8324,0.8323,0.8337,0.8346,0.8353,0.8374,0.8364,0.8372,0.8363,0.8398,0.8365,0.8372,0.8367,0.8367,0.837,0.8405,0.8406,0.8407,0.8408,0,0.8393,0.8384,0.8391,0.8396,0.8402,0.8405,0.8406,0.8414,0.8391,0.84,0.8411,0.8417,0.8428,0.8439,0.8444,0.8442,0.8423,0.8418,0.8426,0.8434,0.8441,0.844,0.8331,0.8417,0.8416,0.8415,0.8415,0.8414,0.8455,0.8469,0.8464,0.8473,0.8472,0.8474,0.8486,0.8477,0.8486,0.8493,0.848,0.8496,0.8494,0.85,0.85,0.8513,0.8498,0.8508,0.8511,0.8515,0.8521,0.8438,0.8513,0.8513,0.8513,0.8513,0.8512,0,0.8535,0.853,0.8539,0.8541,0.8549,0.8529,0.853,0.8538,0.8552,0.8551,0.8559,0.8574,0.8584,0.8575,0.8585,0.8597,0.8589,0.8601,0.8601,0.8601,0.8532,0.8526,0.8608,0.8608,0.8608,0.8608,0.8608,0.8607,0.8577,0.8601,0.8591,0.8615,0.861,0.8625,0.8628,0.863,0.863,0.8647,0.8656,0.865,0.8646,0.8656,0.8665,0.8662,0.8668,0.8684,0.8678,0.8615,0.8605,0.8597,0.8591,0.8685,0.8685,0.8746,0.8747,0.8747]},{"header":{"parameterUnit":"m.s-1","parameterCategory":1,"la1":30.2991,"la2":30.254,"lo1":-89.0895,"lo2":-89.0444,"dy":0.0017,"dx":0.0017,"nx":28,"ny":28,"refTime":"2026-01-03T03:00:00:Z","depth":0,"parameterNumber":3,"parameterNumberName":"V-component_of_WINDS"},"data":[0,0,0,0,0,0,0,0,0,0,0,0,0,0,0,0,0,0,0,0,0,0,0,0,0,0,0,0,0,0,0,0,0,0,0,0,0,0,0,0,0,0,0,0,0,0,0,0,0,0,0,0,0,0,0,0,0,0,5.4191,5.4192,0,5.4271,5.4272,5.4273,5.4267,5.4266,5.4265,5.4264,5.4345,5.4348,5.4351,0,0,0,0,0,0,0,0,0,0,0,0,0,5.4036,5.4038,5.4191,5.4192,5.4193,5.4271,5.4272,5.4273,5.4268,5.4266,5.4265,5.4263,5.4344,5.4347,5.4351,0,0,0,0,0,0,0,0,0,0,0,0,0,5.4108,5.4039,5.4191,5.42,5.4201,5.427,5.4272,5.4273,5.4268,5.4266,5.4264,5.4263,5.4342,5.4347,5.4352,5.4417,0,0,5.4367,5.4369,0,0,0,0,0,0,0,0,5.4104,5.4114,5.4197,5.4199,5.4201,5.4257,5.4247,5.4321,5.4268,5.4243,5.4264,5.4262,5.4317,5.4324,5.4343,5.4421,5.4424,5.4367,5.437,5.4372,5.4374,0,0,0,0,0,0,0,5.4099,5.411,5.4222,5.4199,5.4201,5.42,5.4209,5.4261,5.4289,5.4245,5.4245,5.4254,5.4318,5.4338,5.4344,5.4425,5.4367,5.4371,5.4374,5.4376,5.4565,5.4567,0,0,0,0,0,0,5.4092,5.4106,5.422,5.4225,5.4147,5.4205,5.4214,5.4241,5.4288,5.4294,5.4256,5.4254,5.4331,5.4339,5.4347,5.443,5.4372,5.4377,5.438,5.4563,5.4566,5.4568,0,0,0,0,0,0,5.4088,5.4102,5.4217,5.4166,5.418,5.4209,5.424,5.4244,5.4264,5.4296,5.4301,5.4271,5.4329,5.434,5.4401,5.4432,5.4379,5.4383,5.456,5.4564,5.4567,5.4593,0,0,0,0,0,0,5.4084,5.4101,5.4125,5.4166,5.4183,5.4268,5.4242,5.4246,5.4272,5.4271,5.4312,5.4317,5.4329,5.4394,5.4406,5.4438,5.4387,5.4558,5.4562,5.4566,5.4589,5.4597,5.4603,0,0,0,0,0,5.4078,5.4128,5.4126,5.414,5.4214,5.427,5.428,5.4292,5.4275,5.43,5.4322,5.4316,5.4426,5.44,5.4413,5.4448,5.4556,5.4561,5.4565,5.4586,5.4595,5.4603,0,0,0,0,0,0,5.4089,5.4134,5.4132,5.4197,5.423,5.4269,5.4301,5.4301,5.4339,5.4336,5.435,5.4359,5.442,5.4439,5.4409,5.4515,5.4489,5.4497,5.45,5.4509,5.4516,5.451,5.4391,0,0,0,0,0,5.4099,5.4141,5.4177,5.4231,5.4248,5.4272,5.4297,5.4304,5.4339,5.4353,5.4378,5.4412,5.4455,5.4483,5.4523,5.4592,5.4602,5.4622,5.4629,5.4634,5.4641,5.4682,5.4693,5.4583,5.4583,5.4583,0,0,5.412,5.4149,5.4175,5.4234,5.4261,5.4305,5.4284,5.433,5.4364,5.4359,5.4419,5.4439,5.4478,5.4544,5.4574,5.4562,5.4674,5.464,5.4644,5.4649,5.4688,5.4699,5.4708,5.4587,5.4586,5.4585,0,0,5.4181,5.4206,5.4256,5.4283,5.4325,5.4341,5.4353,5.4393,5.4407,5.4467,5.4466,5.4506,5.4578,5.4607,5.4631,5.4707,5.4704,5.472,5.4755,5.4795,5.4804,5.4812,5.4842,5.4852,5.4726,5.4726,5.4726,0,5.4202,5.4268,5.4281,5.4329,5.4357,5.4356,5.4407,5.4433,5.4485,5.4505,5.449,5.4584,5.461,5.4684,5.4703,5.4721,5.4737,5.4716,5.4801,5.4809,5.4817,5.4846,5.4857,5.4728,5.4728,5.4728,5.4727,0,5.4293,5.4339,5.4374,5.4427,5.4458,5.4507,5.4528,5.4558,5.4563,5.4581,5.4644,5.4676,5.4725,5.4742,5.4746,5.4818,5.481,5.4798,5.4773,5.4829,5.4857,5.4867,5.4731,5.473,5.4729,5.4729,0,0,5.4363,5.4424,5.4436,5.4462,5.4509,5.4545,5.4595,5.4644,5.4671,5.4707,5.4751,5.4814,5.4805,5.4832,5.484,5.4875,5.4937,5.486,5.4861,5.4876,5.5022,5.5032,5.5045,5.4935,5.4937,5.4939,5.502,0,5.4431,5.4521,5.4535,5.4614,5.4659,5.4661,5.4705,5.4739,5.4758,5.4799,5.4819,5.4865,5.4847,5.4865,5.4899,5.4922,5.4967,5.4916,5.4978,5.498,5.4971,5.5058,5.5069,5.5143,5.503,5.5032,5.5033,0,5.4522,5.4564,5.4648,5.4692,5.4711,5.475,5.4799,5.4837,5.4877,5.4888,5.492,5.4925,5.4979,5.495,5.5026,5.4991,5.5017,5.5033,5.5036,5.5044,5.5012,5.5071,5.5167,5.5179,5.505,5.5048,5.5047,0,5.4569,5.4645,5.4706,5.4727,5.4779,5.4808,5.483,5.4868,5.4898,5.494,5.496,5.5006,5.5033,5.5069,5.5087,5.5064,5.5163,5.5135,5.5176,5.5175,5.5198,5.5196,5.5302,5.521,5.521,5.521,5.521,0,5.4645,5.4697,5.4728,5.4766,5.4825,5.4842,5.49,5.4922,5.4957,5.5,5.5003,5.5044,5.5064,5.5108,5.5121,5.5184,5.5195,5.5207,5.5211,5.5208,5.5207,5.5227,5.5223,5.5213,5.5212,5.5212,5.5211,0,5.4707,5.4729,5.4797,5.4842,5.4854,5.4896,5.4935,5.4973,5.4992,5.5047,5.5061,5.5091,5.5143,5.5164,5.5227,5.5237,5.531,5.5308,5.5297,5.5299,5.534,5.5337,5.5463,5.5482,5.5376,5.5377,5.5378,0,5.4755,5.4796,5.4846,5.4876,5.49,5.4947,5.4978,5.4997,5.5029,5.5079,5.5111,5.5164,5.5207,5.529,5.5318,5.5368,5.5369,5.541,5.5376,5.5374,5.5373,5.5372,5.5377,5.5417,5.5418,5.5418,5.5419,0,5.484,5.485,5.4894,5.4945,5.4982,5.5022,5.5061,5.5085,5.5109,5.5146,5.52,5.5234,5.53,5.5353,5.5404,5.5428,5.5429,5.5429,5.5442,5.5441,5.5435,5.5442,5.5317,5.5427,5.5426,5.5425,5.5425,5.5425,5.4899,5.4936,5.4979,5.5029,5.5061,5.5098,5.5137,5.5162,5.5208,5.5264,5.5272,5.5331,5.5372,5.5441,5.5468,5.5515,5.5504,5.5522,5.5527,5.5531,5.5536,5.5426,5.5524,5.5523,5.5523,5.5523,5.5523,0,5.4986,5.5014,5.5061,5.5116,5.5157,5.5154,5.5198,5.5232,5.5284,5.5323,5.5366,5.543,5.5482,5.5515,5.5568,5.56,5.5602,5.5613,5.5612,5.5619,5.5541,5.5526,5.5611,5.5611,5.5611,5.5611,5.5611,5.5611,5.5037,5.5102,5.5117,5.5199,5.5226,5.5285,5.531,5.5345,5.5377,5.5449,5.5492,5.5514,5.5551,5.5607,5.5655,5.5664,5.5684,5.5698,5.5706,5.5633,5.5624,5.5615,5.5601,5.5701,5.5701,5.578,5.5781,5.5781]}]]